Terug naar catalogus

STARLINK-33680

ActiefCommunicatieVLEO
NORAD 63287·PAYLOAD·🇺🇸 United States

Gelanceerd Mar 15, 2025 vanaf Cape Canaveral Space Force Station

Loading…

Volgende Passages (komende 24 uur)

TLE

VersSource: CelesTrak SupGP

Epoch: Sep 15, 2026, 03:19 UTC

1 63287C 25053Y   26258.13868056 -.00019787  00000+0 -71684-3 0  2581
2 63287  43.0003 251.5468 0001208 265.5365 356.2333 15.27580839    16

Volg STARLINK-33680 in realtime met AllMySat

Download on the App Store